Tracking 31027 objects as of 19-Jul-2025
HD Live streaming from Space Station
objects crossing your sky now

FENGYUN 1C DEB

Track FENGYUN 1C DEB now!
10-day predictions


NORAD ID: 32218
Int'l Code: 1999-025CVQ
Perigee: 672.7 km
Apogee: 764.4 km
Inclination: 98.8 °
Period: 99.0 minutes
Semi major axis: 7089 km
RCS: 0.0091 m2 (small)
Launch date: May 10, 1999
Source: People's Republic of China (PRC)
Launch site: Taiyaun Space Center, China (TSC)

Note: This is SATELLITE DEBRIS
Your satellite tracking list
STARLINK-6351
Track 1 satellite(s)




NASA's NSSDC Master Catalog

Two Line Element Set (TLE):
1 32218U 99025CVQ 25199.79624726  .00002893  00000-0  67433-3 0  9998
2 32218  98.8187  25.6708 0064699 152.9333 221.9641 14.54364062942518
Source of the keplerian elements: AFSPC